Regional Weather Roundup
Issued by NWS

Home | Current Version | Previous Version | Graphics & Text | Print | Product List | Glossary On
Versions: 1 2 3 4 5 6 7 8 9 10 11 12 13 14 15 16 17 18 19 20 21 22 23 24 25 26 27 28 29 30 31 32 33 34 35 36 37 38 39 40 41 42 43 44 45 46 47 48 49 50
000
ASUS43 KMPX 250001
RWRMN
WEATHER ROUNDUP FOR MINNESOTA
NATIONAL WEATHER SERVICE TWIN CITIES/CHANHASSEN MN
700 PM CDT WED MAY 24 2017


NOTE: "FAIR" INDICATES FEW OR NO CLOUDS BELOW 12,000 FEET WITH NO
SIGNIFICANT WEATHER AND/OR OBSTRUCTIONS TO VISIBILITY. N/A MEANS
CURRENT SKY AND/OR WEATHER CONDITIONS ARE NOT AVAILABLE.

MNZ060>063-068>070-250100-
   Twin Cities Metro

CITY           SKY/WX    TMP DP  RH WIND       PRES   REMARKS
TWIN CITIES    CLOUDY    61  44  53 NE10      29.70R
6HR MIN TEMP:  58; 6HR MAX TEMP:  63;

ST PAUL        CLOUDY    60  46  59 NE7       29.71R
CRYSTAL        CLOUDY    59  42  53 E7        29.69S
BLAINE         CLOUDY    61  45  55 NE6       29.70S
LAKEVILLE      CLOUDY    59  45  58 NE3       29.69F
EDEN PRAIRIE   CLOUDY    62  43  49 NE3       29.68F
6HR MIN TEMP:  60; 6HR MAX TEMP:  63;

SOUTH ST PAUL  CLOUDY    60  45  57 NE5       29.70S
LAKE ELMO      CLOUDY    61  46  59 NE7       29.71S
$$
MNZ001>005-007-008-013>017-022>024-027-028-250100-
   Northwest Minnesota

CITY           SKY/WX    TMP DP  RH WIND       PRES   REMARKS
BEMIDJI        PTSUNNY   58  40  51 SE13G18   29.69S
HALLOCK        MOSUNNY   68  34  28 SE25      29.59S
ROSEAU         SUNNY     66  41  39 SE15      29.64F
WARROAD        MOSUNNY   66  41  39 S9G18     29.65F
CROOKSTON      PTSUNNY   66  39  37 S20G26    29.63S
FOSSTON        MOSUNNY   63  39  42 SE12G17   29.67S
DETROIT LAKES  CLOUDY    59  41  51 SE14      29.68S
MOORHEAD       CLOUDY    63  41  45 SE14G22   29.64F
PARK RAPIDS    LGT RAIN  61  39  44 SE10      29.68F
MAHNOMEN       MOCLDY    61  40  45 SE15      29.66F
$$
MNZ006-009>011-018-025>026-250100-
   North Central Minnesota

CITY           SKY/WX    TMP DP  RH WIND       PRES   REMARKS
BAUDETTE       SUNNY     66  36  32 S13       29.67S
FLAG ISLAND    SUNNY     64  37  36 CALM      29.66S
INTL FALLS     MOSUNNY   64  38  38 SE13G20   29.70R
6HR MIN TEMP:  62; 6HR MAX TEMP:  68;

WASKISH        PTSUNNY   63  43  48 SE7       29.69S
BIG FORK       MOSUNNY   63  39  42 SE8G16    29.71F
LONGVILLE      CLOUDY    59  39  47 E5        29.70F
GRAND RAPIDS   MOSUNNY   58  39  49 SE12      29.73F
CRANE LAKE     PTSUNNY   64  36  34 S5        29.74S
COOK           MOSUNNY   63  39  42 SE5       29.73F
WALKER         MOCLDY    58  41  54 SE3       29.70R
$$
MNZ012-019>021-037-250100-
   Northeast Minnesota

CITY           SKY/WX    TMP DP  RH WIND       PRES   REMARKS
DULUTH         MOSUNNY   55  42  61 E15       29.75R
6HR MIN TEMP:  55; 6HR MAX TEMP:  59;

ELY            SUNNY     61  30  31 SE13      29.75R
HIBBING        MOSUNNY   58  39  49 SE15G21   29.73F
EVELETH        SUNNY     60  30  32 SE10      29.75S
DULUTH HARBOR  CLOUDY    46  43  87 E10       29.77S
TWO HARBORS    SUNNY     55  46  71 E14       29.75S
SILVER BAY     SUNNY     52  45  76 E9        29.76S
GRAND MARAIS     N/A     48  39  71 E3        29.79S
G MARAIS ARPRT SUNNY     54  32  43 E6        29.79S
$$
MNZ029>031-032-039>041-046>048-054>057-064-250100-
   West Central Minnesota

CITY           SKY/WX    TMP DP  RH WIND       PRES   REMARKS
FERGUS FALLS   PTSUNNY   59  45  58 S13       29.66S
WHEATON        CLOUDY    61  45  55 SE15      29.68F
MORRIS         CLOUDY    59  45  58 SE10      29.68S
ALEXANDRIA     CLOUDY    57  43  59 SE10      29.70F
ELBOW LAKE     CLOUDY    57  44  61 SE14      29.69S
WADENA         CLOUDY    59  43  55 SE10      29.68F
GLENWOOD       CLOUDY    57  45  62 SE9       29.71S
APPLETON       CLOUDY    61  43  51 SE8       29.68S
BENSON         CLOUDY    61  45  55 S6        29.70F
ORTONVILLE     CLOUDY    59  45  58 SE6       29.67F
MADISON        CLOUDY    63  48  59 SE7       29.68S
WILLMAR        CLOUDY    61  46  59 SE8       29.71R
$$
MNZ033>034-036-042>043-049>051-058-059-250100-
   Central Minnesota

CITY           SKY/WX    TMP DP  RH WIND       PRES   REMARKS
ST CLOUD       CLOUDY    58  44  60 E7        29.70S
6HR MIN TEMP:  56; 6HR MAX TEMP:  61;

SAUK CENTRE    CLOUDY    57  42  56 SE6       29.71S
PAYNESVILLE    CLOUDY    57  42  56 E7        29.72R
AITKIN         PTSUNNY   57  43  58 E3        29.70F
PINE RIVER     PTSUNNY   61  43  51 E14G20    29.74S
BRAINERD       PTSUNNY   59  41  51 SE10      29.71S
STAPLES        CLOUDY    57  39  51 SE7       29.70S
LONG PRAIRIE   CLOUDY    55  43  62 NE3       29.71S
LITTLE FALLS   PTSUNNY   55  41  58 E5        29.71S
LITCHFIELD     CLOUDY    59  46  63 E5        29.71S
BUFFALO        CLOUDY    60  43  54 NE5       29.71F
MAPLE LAKE     CLOUDY    59  46  61 E5        29.71F
HUTCHINSON     CLOUDY    60  46  61 E8        29.71F
$$
MNZ037-044-045-052-053-250100-
   East Central Minnesota

CITY           SKY/WX    TMP DP  RH WIND       PRES   REMARKS
PRINCETON      CLOUDY    61  45  55 E3        29.71S
MORA           CLOUDY    55  43  62 E3        29.73S
CAMBRIDGE      CLOUDY    63  45  51 CALM      29.69S
RUSH CITY      CLOUDY    59  43  55 NE3       29.71R
MOOSE LAKE     MOSUNNY   55  41  58 NE8       29.72R
HINCKLEY       CLOUDY    59  45  58 NE6       29.72R
CLOQUET        SUNNY     54  41  62 E12       29.74S
MCGREGOR       CLOUDY    57  43  58 E10       29.73S
$$
MNZ071>073-080-081-089-090-097-098-250100-
   Southwest Minnesota

CITY           SKY/WX    TMP DP  RH WIND       PRES   REMARKS
MONTEVIDEO     CLOUDY    59  45  58 S7        29.68F
CANBY          CLOUDY    60  44  55 CALM      29.69S
MARSHALL       CLOUDY    59  44  57 SE7       29.69F
REDWOOD FALLS  CLOUDY    60  43  53 S5        29.69S
OLIVIA         CLOUDY    59  45  58 E8        29.69S
PIPESTONE      MOSUNNY   61  39  44 S3        29.68S
WINDOM         PTSUNNY   59  45  58 CALM      29.70S
WORTHINGTON    CLOUDY    58  42  55 E3        29.70S
JACKSON        CLOUDY    55  43  62 CALM      29.70F
TRACY          CLOUDY    59  47  65 SE6       29.69F
SLAYTON        CLOUDY    57  44  62 E6        29.70S
$$
MNZ065>067-074>077-082>085-091>093-250100-
   South Central Minnesota

CITY           SKY/WX    TMP DP  RH WIND       PRES   REMARKS
MANKATO        CLOUDY    60  46  59 NE6       29.70S
NEW ULM        MOSUNNY   57  45  62 E3        29.69F
ST JAMES       MOSUNNY   61  45  55 E5        29.70S
FAIRMONT       MOSUNNY   61  46  57 NE7       29.69S
GLENCOE        MOSUNNY   61  48  61 E8        29.69F
FARIBAULT      CLOUDY    61  46  59 N5        29.70S
OWATONNA       CLOUDY    57  45  62 NE5       29.69S
WASECA         CLOUDY    55  45  67 N6        29.71S
ALBERT LEA     CLOUDY    61  48  63 NE6       29.68S
$$
MNZ078>079-086>088-094>096-250100-
   Southeast Minnesota

CITY           SKY/WX    TMP DP  RH WIND       PRES   REMARKS
ROCHESTER      CLOUDY    58  47  66 N8        29.70S
6HR MIN TEMP:  57; 6HR MAX TEMP:  62;

RED WING       CLOUDY    61  45  55 N3        29.68S
STANTON        CLOUDY    62  47  58 NE5       29.68S
DODGE CENTER   CLOUDY    57  45  62 NE8       29.69S
WINONA         PTSUNNY   59  46  63 E3        29.68F
AUSTIN         CLOUDY    61  48  63 N6        29.67F
PRESTON        CLOUDY    57  47  67 NE3       29.68S
$$
ABBREVIATIONS USED IN REMARKS
   TC - TEMPERATURES IN CELSIUS
  WCI - WIND CHILL INDEX
   HX - HEAT INDEX
  VSB - VISIBILITY
$$




USA.gov is the U.S. government's official web portal to all federal, state and local government web resources and services.